Monte Cimone, Italy

12:52 PM CEST on June 27, 2017 (GMT +0200)
Monte Cimone

Weather History for LIVC - October, 2012

Change the Weather History Date:

Wednesday, October 24, 2012

  Actual Average Record
Temperature  
Mean Temperature 50 °F -  
Max Temperature 53 °F 37 °F 59 °F (1996)
Min Temperature 46 °F 29 °F 23 °F (2003)
Degree Days  
Heating Degree Days 16    
Moisture  
Dew Point 22 °F    
Average Humidity 44    
Maximum Humidity 100    
Minimum Humidity 5    
Precipitation  
Precipitation 0.02 in 0.11 in - ()
Sea Level Pressure  
Sea Level Pressure 30.15 in    
Wind  
Wind Speed 11 mph ()    
Max Wind Speed 62 mph    
Max Gust Speed -    
Visibility 6.3 miles    
Events Fog    
Averages and records for this station are not official NWS values.
T = Trace of Precipitation, MM = Missing Value Source: Averaged Metar Reports

Daily Weather History Graph

Daily Weather History Graph

Search for Another Location

Airport or City:

Trip Planner

Search our weather history database for the weather conditions in past years. The results will help you decide how hot, cold, wet, or windy it might be!

Date:

Astronomy

Oct. 24, 2012 Rise Set
Actual Time 7:43 AM CEST 6:18 PM CEST
Civil Twilight 7:14 AM CEST 6:47 PM CEST
Nautical Twilight 6:40 AM CEST 7:21 PM CEST
Astronomical Twilight 6:06 AM CEST 7:55 PM CEST
Moon 3:35 PM CEST (10/24) 2:10 AM CEST (10/24)
Length of Visible Light 11h 33m
Length of Day
10h 34m
Waxing Gibbous, 73% of the Moon is Illuminated
Oct 24
Waxing Gibbous
Oct 29
Full
Nov 7
Last Quarter
Nov 13
New
Nov 20
First Quarter

Hourly Weather History & Observations

Time (CEST) Temp. Windchill Dew Point Humidity Pressure Visibility Wind Dir Wind Speed Gust Speed Precip Events Conditions
12:55 AM 48.2 °F - -2.2 °F 12% 30.24 in - East 9.2 mph - N/A   Clear
1:55 AM 48.2 °F - -0.4 °F 13% 30.21 in - North 9.2 mph - N/A   Clear
2:00 AM 48 °F - -0 °F 5%  in 31 mi North 9.2 mph - -  
2:55 AM 48.2 °F - -4.0 °F 11% 30.21 in - North 8.1 mph - N/A   Clear
3:55 AM 48.2 °F - -2.2 °F 12% 30.18 in - North 5.8 mph - N/A   Clear
4:55 AM 48.2 °F - 3.2 °F 16% 30.15 in - North 16.1 mph - N/A   Clear
5:55 AM 46.4 °F 39.8 °F 5.0 °F 18% 30.15 in - North 16.1 mph - N/A   Clear
6:55 AM 46.4 °F 41.9 °F 6.8 °F 20% 30.15 in - North 9.2 mph - N/A   Clear
7:55 AM 46.4 °F - 6.8 °F 20% 30.15 in - Calm Calm - N/A   Clear
8:00 AM 47 °F - 7 °F 9%  in 25 mi Calm Calm - -  
8:55 AM 46.4 °F 41.9 °F 6.8 °F 20% 30.15 in - ENE 9.2 mph - N/A   Clear
9:55 AM 50.0 °F - 12.2 °F 22% 30.15 in - ENE 8.1 mph - N/A   Clear
10:55 AM 50.0 °F - 15.8 °F 26% 30.15 in - SSE 11.5 mph - N/A   Clear
11:55 AM 51.8 °F - 21.2 °F 30% 30.15 in - SSE 9.2 mph - N/A   Clear
12:55 PM 53.6 °F - 26.6 °F 35% 30.15 in - South 10.4 mph - N/A   Clear
1:55 PM 51.8 °F - 33.8 °F 50% 30.15 in - West 8.1 mph - N/A   Clear
2:00 PM 53 °F - 33 °F 34%  in 19 mi West 8.1 mph - -  
2:55 PM 51.8 °F - 35.6 °F 54% 30.15 in - West 62.1 mph - N/A   Clear
3:55 PM 51.8 °F - 41.0 °F 67% 30.15 in - WSW 18.4 mph - N/A   Clear
4:55 PM 48.2 °F - 42.8 °F 82% 30.12 in - SW 20.7 mph - N/A   Clear
5:55 PM 46.4 °F 37.7 °F 44.6 °F 93% 30.12 in - SW 26.5 mph - N/A   Clear
6:55 PM 46.4 °F 38.3 °F 44.6 °F 93% 30.12 in - SW 23.0 mph - N/A   Clear
7:55 PM 46.4 °F 37.5 °F 41.0 °F 81% 30.12 in - WSW 27.6 mph - N/A   Clear
8:55 PM 46.4 °F 39.8 °F 42.8 °F 87% 30.12 in - SW 16.1 mph - N/A   Clear
9:55 PM 46.4 °F 39.5 °F 44.6 °F 93% 30.12 in - SW 17.3 mph - N/A   Clear
10:55 PM 46.4 °F 39.2 °F 44.6 °F 93% 30.12 in 0.0 mi SW 18.4 mph - N/A Fog Fog
11:55 PM 46.4 °F 39.8 °F 46.4 °F 100% 30.12 in 0.0 mi SW 16.1 mph - N/A Fog Fog